Regional Weather Roundup
Issued by NWS

Home | Current Version | Previous Version | Graphics & Text | Print | Product List | Glossary On
Versions: 1 2 3 4 5 6 7 8 9 10 11 12 13 14 15 16 17 18 19 20 21 22 23 24 25 26 27 28 29 30 31 32 33 34 35 36 37 38 39 40 41 42 43 44 45 46 47 48 49 50
000
ASUS43 KTOP 241808
RWRKS

WEATHER ROUNDUP FOR KANSAS
NATIONAL WEATHER SERVICE GOODLAND KS
100 PM CDT SUN JUL 24 2016

NOTE:  "FAIR" INDICATES FEW OR NO CLOUDS BELOW 12,000 FEET WITH NO
SIGNIFICANT WEATHER AND/OR OBSTRUCTIONS TO VISIBILITY.

KSZ001>006-013>018-027>032-041>047-241900-
NORTHWEST KANSAS

CITY           SKY/WX    TMP DP  RH WIND       PRES   REMARKS
GOODLAND       SUNNY     87  60  40 NE17      30.11F
6HR MIN TEMP:  69; 6HR MAX TEMP:  88;

HAYS           MOSUNNY   91  64  40 E14       29.98S
HILL CITY      MOSUNNY   86  70  58 E8        30.03R
6HR MIN TEMP:  74; 6HR MAX TEMP:  86; 6HR PCP: TRACE;

RUSSELL        CLOUDY    92  69  47 NE12      29.97F HX  97
6HR MIN TEMP:  74; 6HR MAX TEMP:  93;

$$

KSZ061>065-074>080-084>089-241900-
SOUTHWEST KANSAS

CITY           SKY/WX    TMP DP  RH WIND       PRES   REMARKS
DODGE CITY     CLOUDY    88  66  48 SW6       30.00S
6HR MIN TEMP:  73; 6HR MAX TEMP:  89; 6HR PCP: TRACE;

ELKHART          N/A     91  63  39 E12         N/A
GARDEN CITY    CLOUDY    90  68  48 CALM      30.01S
6HR MIN TEMP:  68; 6HR MAX TEMP:  90;

GREAT BEND     SUNNY     90  64  43 CALM      29.96F
LIBERAL        CLOUDY    88  63  42 S3        30.05S
PRATT          CLOUDY    84  67  56 N3        29.97S
6HR MIN TEMP:  72; 6HR MAX TEMP:  86;

$$

KSZ066>073-081>083-090>101-241900-
SOUTHEAST KANSAS

CITY           SKY/WX    TMP DP  RH WIND       PRES   REMARKS
CHANUTE        SUNNY     93  74  53 S13       29.96S HX 103
6HR MIN TEMP:  78; 6HR MAX TEMP:  94;

COFFEYVILLE    SUNNY     96  73  47 SW7G17    29.96R HX 105
6HR MIN TEMP:  77; 6HR MAX TEMP:  97;

HUTCHINSON     CLOUDY    93  68  43 SW5       29.96R HX  97
6HR MIN TEMP:  76; 6HR MAX TEMP:  93;

MEDICINE LODGE   N/A     98  62  30 S3        29.92F HX  99
NEWTON         CLOUDY    95  69  42 SW12      29.96S HX 100
PARSONS        SUNNY     95  73  48 S9        29.97F HX 104
6HR MIN TEMP:  77; 6HR MAX TEMP:  96; 6HR PCP: TRACE;

WICHITA INTL   MOSUNNY  100  67  33 SW10      29.93F HX 105
6HR MIN TEMP:  77; 6HR MAX TEMP: 100;

WICHITA JABRA  SUNNY     96  71  44 S8        29.94F HX 103
6HR MIN TEMP:  78; 6HR MAX TEMP:  97;

WICHITA MCCONL MOSUNNY   96  68  40 SW12      29.94F HX 100
WINFIELD       SUNNY     99  67  35 S15       29.95F HX 103
6HR MIN TEMP:  77; 6HR MAX TEMP: 100;

$$

KSZ007>012-019>026-033>040-048>060-102>105-241900-
NORTHEAST KANSAS

CITY           SKY/WX    TMP DP  RH WIND       PRES   REMARKS
CONCORDIA      CLOUDY    80  70  71 N3        29.99R
6HR MIN TEMP:  74; 6HR MAX TEMP:  80; 6HR PCP:  0.01;

EMPORIA        MOSUNNY   97  66  36 VRB3      29.93F HX 100
6HR MIN TEMP:  76; 6HR MAX TEMP:  97;

LAWRENCE       CLOUDY    91  75  59 N7        29.94R HX 101
6HR MIN TEMP:  76; 6HR MAX TEMP:  94;

MANHATTAN      CLOUDY    87  71  58 NE5       29.95S
6HR MIN TEMP:  77; 6HR MAX TEMP:  87; 6HR PCP: TRACE;

MARYSVILLE     LGT RAIN  82  72  69 N8        29.97R
OLATHE IND     SUNNY     95  74  50 S7        29.95F HX 105
6HR MIN TEMP:  79; 6HR MAX TEMP:  95;

OLATHE EXE     SUNNY     92  73  53 S6        29.95S HX 100
6HR MIN TEMP:  79; 6HR MAX TEMP:  93;

SALINA         MOSUNNY   93  72  50 VRB5      29.95S HX 101
6HR MIN TEMP:  80; 6HR MAX TEMP:  93; 6HR PCP: TRACE;

TOPEKA BILLARD CLOUDY    90  72  55 NE6       29.95R HX  97
6HR MIN TEMP:  82; 6HR MAX TEMP:  92;

TOPEKA FORBES  CLOUDY    92  74  55 NE7       29.95S HX 101
6HR MIN TEMP:  79; 6HR MAX TEMP:  93;

$$



USA.gov is the U.S. government's official web portal to all federal, state and local government web resources and services.